EA1M Weather Reports


Display with metric or nautical units.
time (UTC)temp
F
wind
direction
speed
MPH
gust
MPH
rain 1hr
in
rain 24hr
in
rain mn
in
humidity
%
barometer
mb
20260906193047 69 46 0.0 1.0 0.00 0.02 0.02 81 1025.1
20260906192111 69 46 0.0 1.0 0.00 0.02 0.02 81 1025.2
20260906191031 69 46 1.0 2.0 0.00 0.02 0.02 79 1025.0
20260906190054 70 351 1.0 2.0 0.00 0.02 0.02 77 1025.1
20260906185120 71 47 1.0 3.0 0.00 0.02 0.02 76 1025.0
20260906184040 71 14 2.0 4.0 0.00 0.02 0.02 75 1025.0
20260906183102 72 30 1.0 3.0 0.00 0.02 0.02 74 1024.9
20260906182023 72 38 1.0 3.0 0.00 0.02 0.02 74 1024.8
20260906181046 74 32 1.0 3.0 0.00 0.02 0.02 70 1024.9
20260906180130 74 64 1.0 3.0 0.00 0.02 0.02 68 1024.9
20260906175031 74 344 2.0 6.0 0.00 0.02 0.02 69 1025.0
20260906174116 74 342 4.0 7.0 0.00 0.02 0.02 69 1024.9
20260906173119 74 30 3.0 4.0 0.00 0.02 0.02 68 1024.9
20260906172039 74 350 3.0 7.0 0.00 0.02 0.02 68 1024.8
20260906171123 74 24 2.0 7.0 0.00 0.02 0.02 68 1024.9
20260906170022 75 330 3.0 7.0 0.00 0.02 0.02 67 1024.7
20260906165047 74 21 4.0 7.0 0.00 0.02 0.02 67 1024.6
20260906164111 74 329 4.0 7.0 0.00 0.02 0.02 67 1024.7
20260906163031 74 38 4.0 10.0 0.00 0.02 0.02 67 1024.5
20260906162055 74 332 4.0 8.0 0.00 0.02 0.02 67 1024.5
20260906161140 75 327 5.0 10.0 0.00 0.02 0.02 67 1024.5
20260906160038 75 355 5.0 10.0 0.00 0.02 0.02 66 1024.4
20260906155103 76 342 4.0 9.0 0.00 0.02 0.02 66 1024.5
20260906154043 76 358 5.0 9.0 0.00 0.02 0.02 67 1024.5
20260906153047 76 324 4.0 8.0 0.00 0.02 0.02 66 1024.4
20260906152111 76 306 4.0 8.0 0.00 0.02 0.02 67 1024.3
20260906151030 76 328 5.0 10.0 0.00 0.02 0.02 69 1024.5
20260906150054 76 324 5.0 11.0 0.00 0.02 0.02 66 1024.3
20260906145140 76 292 5.0 10.0 0.00 0.02 0.02 66 1024.3
20260906144039 77 347 3.0 7.0 0.00 0.02 0.02 65 1024.2
20260906143103 76 340 4.0 10.0 0.00 0.02 0.02 65 1024.5
20260906142023 76 342 4.0 9.0 0.00 0.02 0.02 65 1024.4
20260906141047 77 333 4.0 8.0 0.00 0.02 0.02 64 1024.2
20260906140111 77 332 3.0 9.0 0.00 0.02 0.02 64 1024.1
20260906135031 76 1 4.0 8.0 0.00 0.02 0.02 66 1024.1
20260906134055 76 329 5.0 9.0 0.00 0.02 0.02 66 1024.1
20260906133119 76 277 5.0 10.0 0.00 0.02 0.02 67 1024.1
20260906132059 75 318 5.0 11.0 0.00 0.02 0.02 67 1024.3
20260906131103 76 302 6.0 10.0 0.00 0.02 0.02 66 1024.0
20260906130023 76 351 4.0 10.0 0.00 0.02 0.02 66 1023.9
20260906125047 75 316 6.0 11.0 0.00 0.02 0.02 68 1023.9
20260906124130 75 3 4.0 9.0 0.00 0.02 0.02 68 1023.9
20260906123031 75 306 5.0 10.0 0.00 0.02 0.02 69 1023.8
20260906122054 75 328 6.0 9.0 0.00 0.02 0.02 69 1023.8
20260906121118 75 332 5.0 13.0 0.00 0.02 0.02 70 1023.8
20260906120039 75 316 5.0 8.0 0.00 0.02 0.02 69 1023.7
20260906115123 75 350 5.0 10.0 0.00 0.02 0.02 70 1023.9
20260906114023 75 308 5.0 9.0 0.00 0.02 0.02 71 1023.8
20260906113046 75 337 4.0 8.0 0.00 0.02 0.02 71 1023.7
20260906112111 75 338 4.0 7.0 0.00 0.02 0.02 70 1023.7
20260906111032 75 335 4.0 10.0 0.00 0.02 0.02 70 1023.9
20260906110055 75 310 4.0 8.0 0.00 0.02 0.02 69 1023.7
20260906105119 75 335 3.0 8.0 0.00 0.02 0.02 69 1023.6
20260906104039 74 321 3.0 8.0 0.00 0.02 0.02 70 1023.8
20260906103103 74 279 5.0 8.0 0.00 0.02 0.02 71 1023.8
20260906102023 73 325 4.0 9.0 0.00 0.02 0.02 72 1023.8
20260906101047 73 297 3.0 8.0 0.00 0.02 0.02 73 1023.8
20260906100111 73 230 3.0 6.0 0.00 0.02 0.02 73 1023.5
20260906095031 72 316 5.0 7.0 0.00 0.02 0.02 74 1023.6
20260906094055 71 192 4.0 7.0 0.00 0.02 0.02 75 1023.4
20260906093119 72 276 3.0 6.0 0.00 0.02 0.02 76 1023.4
20260906092059 71 125 4.0 7.0 0.00 0.02 0.02 78 1023.4
20260906091123 70 181 3.0 9.0 0.00 0.02 0.02 79 1023.4
20260906090023 69 199 4.0 8.0 0.01 0.02 0.02 81 1023.3
20260906085046 68 241 4.0 8.0 0.01 0.02 0.02 86 1023.4
20260906084110 67 229 4.0 8.0 0.01 0.02 0.02 92 1023.3
20260906083032 66 257 3.0 8.0 0.01 0.02 0.02 94 1023.0
20260906082055 66 102 2.0 7.0 0.01 0.02 0.02 95 1023.0
20260906081119 65 294 3.0 7.0 0.01 0.02 0.02 95 1023.1
20260906080039 65 103 1.0 3.0 0.00 0.01 0.01 95 1022.8
20260906075102 65 114 2.0 3.0 0.00 0.01 0.01 96 1022.8
20260906074103 64 118 2.0 3.0 0.00 0.01 0.01 96 1022.6
20260906073046 64 125 2.0 4.0 0.00 0.01 0.01 96 1022.5
20260906072111 64 96 2.0 3.0 0.00 0.01 0.01 96 1022.4
20260906071030 64 82 1.0 3.0 0.00 0.01 0.01 96 1022.3
20260906070055 64 108 2.0 4.0 0.00 0.01 0.01 96 1022.3
20260906065119 64 82 1.0 3.0 0.00 0.01 0.01 96 1022.0
20260906064039 64 97 3.0 4.0 0.00 0.01 0.01 95 1021.7
20260906063103 64 91 1.0 3.0 0.00 0.01 0.01 95 1021.5
20260906062023 64 118 2.0 4.0 0.00 0.01 0.01 95 1021.1
20260906061046 64 92 1.0 3.0 0.00 0.01 0.01 95 1021.0
20260906060111 64 116 2.0 3.0 0.00 0.01 0.01 95 1021.0
20260906055031 64 82 2.0 4.0 0.00 0.01 0.01 95 1020.8
20260906054055 64 88 1.0 2.0 0.00 0.01 0.01 95 1020.6
20260906053119 64 50 0.0 2.0 0.00 0.01 0.01 95 1020.5
20260906052058 64 53 0.0 1.0 0.00 0.01 0.01 95 1020.3
20260906051144 64 38 1.0 3.0 0.00 0.01 0.01 95 1020.2
20260906050023 64 24 1.0 2.0 0.00 0.01 0.01 94 1020.1
20260906045047 64 40 1.0 2.0 0.00 0.01 0.01 94 1020.0
20260906044111 64 26 2.0 6.0 0.00 0.01 0.01 94 1019.9
20260906043030 64 16 3.0 6.0 0.01 0.01 0.01 94 1019.8
20260906042055 64 30 3.0 6.0 0.01 0.01 0.01 94 1019.7
20260906041119 64 356 3.0 4.0 0.01 0.01 0.01 94 1019.7
20260906040039 65 55 0.0 1.0 0.01 0.01 0.01 93 1019.7
20260906035103 65 35 1.0 2.0 0.01 0.01 0.01 93 1019.7
20260906034022 65 5 2.0 3.0 0.01 0.01 0.01 93 1019.6
20260906033047 65 52 0.0 1.0 0.00 0.00 0.00 92 1019.8
20260906032111 65 58 0.0 1.0 0.00 0.00 0.00 92 1020.0
20260906031030 65 11 2.0 4.0 0.00 0.00 0.00 91 1020.1
20260906030054 66 57 1.0 6.0 0.00 0.00 0.00 90 1020.0
20260906025119 67 36 2.0 4.0 0.00 0.00 0.00 89 1019.9
20260906024039 67 33 1.0 3.0 0.00 0.00 0.00 88 1019.8
20260906023103 67 43 1.0 4.0 0.00 0.00 0.00 86 1020.0
20260906022022 68 43 2.0 3.0 0.00 0.00 0.00 84 1020.0
20260906021046 69 70 1.0 3.0 0.00 0.00 0.00 81 1020.2
20260906020111 69 54 1.0 2.0 0.00 0.00 0.00 79 1020.1
20260906015031 70 39 1.0 3.0 0.00 0.00 0.00 79 1020.1
20260906014054 70 43 1.0 2.0 0.00 0.00 0.00 79 1020.2
20260906013139 70 0.0 1.0 0.00 0.00 0.00 79 1020.2
20260906012039 70 92 1.0 3.0 0.00 0.00 0.00 81 1020.3
20260906011101 71 112 4.0 6.0 0.00 0.00 0.00 80 1020.3
20260906010023 72 152 4.0 6.0 0.00 0.00 0.00 76 1020.2
20260906005047 72 127 3.0 6.0 0.00 0.00 0.00 76 1020.1
20260906004111 72 88 4.0 6.0 0.00 0.00 0.00 76 1020.1
20260906003030 71 156 5.0 7.0 0.00 0.00 0.00 81 1020.3
20260906002055 71 131 4.0 4.0 0.00 0.00 0.00 82 1020.1
20260906001127 71 132 4.0 6.0 0.00 0.00 0.00 82 1020.2
20260906000039 71 151 5.0 7.0 0.00 0.00 0.00 82 1020.2
20260905235123 71 138 5.0 9.0 0.00 0.00 0.00 83 1020.3
20260905234023 72 132 5.0 9.0 0.00 0.00 0.00 82 1020.4
20260905233047 72 126 3.0 7.0 0.00 0.00 0.00 80 1020.4
20260905232111 71 92 3.0 6.0 0.00 0.00 0.00 85 1020.4
20260905231031 73 121 3.0 6.0 0.00 0.00 0.00 83 1020.6
20260905230055 73 96 4.0 7.0 0.00 0.00 0.00 80 1020.4
20260905225018 72 91 4.0 6.0 0.00 0.00 0.00 84 1020.5
20260905224039 73 104 3.0 4.0 0.00 0.00 0.00 82 1020.4
20260905223104 73 108 2.0 3.0 0.00 0.00 0.00 81 1020.4
20260905222023 73 80 1.0 2.0 0.00 0.00 0.00 80 1020.6
20260905221046 73 55 0.0 1.0 0.00 0.00 0.00 79 1020.6
20260905220111 73 0.0 0.0 0.00 0.00 0.00 78 1020.7
20260905215030 74 0.0 1.0 0.00 0.00 0.00 77 1020.6
20260905214054 74 35 0.0 2.0 0.00 0.00 0.00 76 1020.7
20260905213118 75 77 0.0 1.0 0.00 0.00 0.00 75 1020.8
20260905212038 75 60 0.0 1.0 0.00 0.00 0.00 75 1020.8
20260905211102 76 28 1.0 2.0 0.00 0.00 0.00 73 1020.8
20260905210022 76 73 0.0 1.0 0.00 0.00 0.00 71 1020.9
20260905205046 77 114 2.0 4.0 0.00 0.00 0.00 68 1020.7
20260905204130 77 76 1.0 2.0 0.00 0.00 0.00 68 1020.7
20260905203031 77 88 1.0 3.0 0.00 0.00 0.00 68 1020.8
20260905202054 77 113 3.0 3.0 0.00 0.00 0.00 66 1020.7
20260905201119 76 60 0.0 1.0 0.00 0.00 0.00 71 1020.6
20260905200038 75 84 2.0 3.0 0.00 0.00 0.00 73 1020.5
20260905195102 75 101 2.0 3.0 0.00 0.00 0.00 74 1020.5
20260905194022 76 113 2.0 4.0 0.00 0.00 0.00 72 1020.6